GW1804 Weather Reports


time (UTC)temp
C
wind
direction
speed
KPH
gust
KPH
rain 1hr
cm
rain 24hr
cm
rain mn
cm
humidity
%
barometer
mb
20260508052532 16 225 0.0 6.4 0.00 0.00 0.00 89 1016.5
20260508052032 16 237 1.6 6.4 0.00 0.00 0.00 89 1016.5
20260508051546 16 218 1.6 6.4 0.00 0.00 0.00 89 1016.5
20260508051032 16 0 0.0 3.2 0.00 0.00 0.00 89 1016.5
20260508050532 16 275 0.0 4.8 0.00 0.00 0.00 89 1016.4
20260508050047 16 287 1.6 6.4 0.00 0.00 0.00 89 1016.5
20260508045531 16 261 1.6 6.4 0.00 0.00 0.00 89 1016.4
20260508045031 16 257 0.0 4.8 0.00 0.00 0.00 89 1016.4
20260508044544 16 269 1.6 4.8 0.00 0.00 0.00 89 1016.4
20260508044032 16 0 1.6 4.8 0.00 0.00 0.00 89 1016.4
20260508043532 16 285 0.0 4.8 0.00 0.00 0.00 89 1016.3
20260508043055 16 299 0.0 4.8 0.00 0.00 0.00 89 1016.2
20260508042533 16 0 0.0 6.4 0.00 0.00 0.00 88 1016.1
20260508042035 16 0 1.6 6.4 0.00 0.00 0.00 88 1016.0
20260508041552 16 225 1.6 4.8 0.00 0.00 0.00 88 1015.9
20260508041032 16 244 1.6 4.8 0.00 0.00 0.00 89 1015.8
20260508040532 16 269 1.6 6.4 0.00 0.00 0.00 88 1015.8
20260508040050 16 271 3.2 6.4 0.00 0.00 0.00 88 1015.7
20260508035532 16 0 1.6 8.0 0.00 0.00 0.00 88 1015.7
20260508035033 16 294 3.2 8.0 0.00 0.00 0.00 88 1015.6
20260508034548 16 232 3.2 6.4 0.00 0.00 0.00 88 1015.6
20260508034032 16 225 1.6 6.4 0.00 0.00 0.00 88 1015.5
20260508033531 16 260 3.2 6.4 0.00 0.00 0.00 88 1015.4
20260508033041 16 0 1.6 6.4 0.00 0.00 0.00 88 1015.3
20260508032532 16 238 1.6 6.4 0.00 0.00 0.00 88 1015.3
20260508032032 16 279 1.6 6.4 0.00 0.00 0.00 88 1015.2
20260508031550 16 304 1.6 6.4 0.00 0.00 0.00 87 1015.2
20260508031032 16 242 1.6 4.8 0.00 0.00 0.00 87 1015.1
20260508030532 16 284 1.6 6.4 0.00 0.00 0.00 87 1015.1
20260508030048 16 291 1.6 6.4 0.00 0.00 0.00 87 1015.1
20260508025533 16 321 3.2 6.4 0.00 0.00 0.00 87 1015.0
20260508025034 16 268 1.6 4.8 0.00 0.00 0.00 87 1015.0
20260508024547 16 271 1.6 4.8 0.00 0.00 0.00 86 1015.0
20260508024032 16 271 1.6 6.4 0.00 0.00 0.00 86 1014.9
20260508023532 16 265 3.2 8.0 0.00 0.00 0.00 86 1014.9
20260508023049 16 248 3.2 8.0 0.00 0.00 0.00 86 1014.8
20260508022531 16 323 3.2 8.0 0.00 0.00 0.00 85 1014.7
20260508022033 16 252 1.6 6.4 0.00 0.00 0.00 85 1014.7
20260508021555 16 241 1.6 4.8 0.00 0.00 0.00 85 1014.6
20260508021032 16 298 1.6 4.8 0.00 0.00 0.00 85 1014.6
20260508020532 16 275 3.2 4.8 0.00 0.00 0.00 85 1014.6
20260508020050 16 309 1.6 9.7 0.00 0.00 0.00 84 1014.6
20260508015532 16 261 3.2 9.7 0.00 0.00 0.00 84 1014.6
20260508015032 16 295 1.6 8.0 0.00 0.00 0.00 83 1014.5
20260508014541 17 287 3.2 8.0 0.00 0.00 0.00 83 1014.6
20260508014033 17 301 3.2 8.0 0.00 0.00 0.00 82 1014.5
20260508013532 17 267 1.6 6.4 0.00 0.00 0.00 82 1014.6
20260508013054 17 282 3.2 6.4 0.00 0.00 0.00 82 1014.5
20260508012532 17 267 1.6 6.4 0.00 0.00 0.00 82 1014.6
20260508012032 17 280 1.6 8.0 0.00 0.00 0.00 81 1014.5
20260508011554 17 240 1.6 8.0 0.00 0.00 0.00 81 1014.5
20260508011031 17 284 1.6 8.0 0.00 0.00 0.00 81 1014.6
20260508010532 17 225 1.6 8.0 0.00 0.00 0.00 81 1014.5
20260508010050 17 294 4.8 9.7 0.00 0.00 0.00 81 1014.5
20260508005531 17 281 4.8 9.7 0.00 0.00 0.00 81 1014.6
20260508005034 17 238 3.2 8.0 0.00 0.00 0.00 80 1014.6
20260508004545 18 242 3.2 8.0 0.00 0.00 0.00 80 1014.5
20260508004035 18 285 3.2 8.0 0.00 0.00 0.00 80 1014.5
20260508003532 18 264 3.2 8.0 0.00 0.00 0.00 80 1014.5
20260508003043 18 281 1.6 11.3 0.00 0.00 0.00 81 1014.5
20260508002532 17 260 4.8 11.3 0.00 0.00 0.00 81 1014.6
20260508002032 17 290 1.6 9.7 0.00 0.00 0.00 81 1014.6
20260508001611 17 325 3.2 11.3 0.00 0.00 0.00 81 1014.6
20260508001032 17 312 3.2 11.3 0.00 0.00 0.00 81 1014.6
20260508000533 17 285 4.8 11.3 0.00 0.00 0.00 80 1014.6
20260508000050 18 248 3.2 11.3 0.00 0.00 0.00 80 1014.7
20260507235533 18 305 1.6 11.3 0.00 0.00 0.00 80 1014.8
20260507235031 18 308 3.2 11.3 0.00 0.00 0.00 80 1014.8
20260507234549 18 313 4.8 11.3 0.00 0.00 0.00 80 1014.7
20260507234056 18 265 1.6 11.3 0.00 0.00 0.00 80 1014.7
20260507233533 18 306 4.8 12.9 0.00 0.00 0.00 80 1014.7
20260507233048 18 315 4.8 12.9 0.00 0.00 0.00 80 1014.7
20260507232531 18 292 4.8 12.9 0.00 0.00 0.00 80 1014.7
20260507232034 18 269 4.8 16.1 0.00 0.00 0.00 80 1014.6
20260507231545 18 5 4.8 16.1 0.00 0.00 0.00 80 1014.7
20260507231032 18 322 3.2 12.9 0.00 0.00 0.00 80 1014.6
20260507230532 18 233 4.8 12.9 0.00 0.00 0.00 80 1014.6
20260507230044 18 273 4.8 12.9 0.00 0.00 0.00 79 1014.6
20260507225532 18 249 4.8 12.9 0.00 0.00 0.00 79 1014.7
20260507225032 18 287 4.8 12.9 0.00 0.00 0.00 79 1014.7
20260507224552 18 312 3.2 12.9 0.00 0.00 0.00 79 1014.7
20260507224032 18 236 4.8 17.7 0.00 0.00 0.00 79 1014.8
20260507223532 18 273 4.8 17.7 0.00 0.00 0.00 79 1014.9
20260507223050 18 271 8.0 17.7 0.00 0.00 0.00 78 1014.9
20260507222532 18 263 4.8 12.9 0.00 0.00 0.00 79 1014.9
20260507222032 18 229 6.4 12.9 0.00 0.00 0.00 78 1014.9
20260507221543 18 278 3.2 14.5 0.00 0.00 0.00 78 1015.0
20260507221031 19 265 3.2 14.5 0.00 0.00 0.00 77 1015.0
20260507220531 19 277 4.8 12.9 0.00 0.00 0.00 77 1015.1
20260507220054 19 284 4.8 16.1 0.00 0.00 0.00 77 1015.1
20260507215535 19 201 6.4 16.1 0.00 0.00 0.00 77 1015.1
20260507215031 19 299 6.4 17.7 0.00 0.00 0.00 77 1015.1
20260507214552 19 265 8.0 17.7 0.00 0.00 0.00 77 1015.2
20260507214033 19 283 4.8 16.1 0.00 0.00 0.00 77 1015.2
20260507213531 19 272 6.4 16.1 0.00 0.00 0.00 77 1015.3
20260507213049 20 293 6.4 14.5 0.00 0.00 0.00 76 1015.3
20260507212531 20 272 6.4 14.5 0.00 0.00 0.00 76 1015.2
20260507212031 20 242 6.4 14.5 0.00 0.00 0.00 75 1015.3
20260507211551 20 242 8.0 12.9 0.00 0.00 0.00 75 1015.3
20260507211034 20 284 6.4 14.5 0.00 0.00 0.00 76 1015.4
20260507210532 20 256 4.8 14.5 0.00 0.00 0.00 76 1015.4
20260507210047 20 254 6.4 19.3 0.00 0.00 0.00 76 1015.4
20260507205535 20 283 6.4 19.3 0.00 0.00 0.00 77 1015.5
20260507205034 20 213 8.0 16.1 0.00 0.00 0.00 76 1015.5
20260507204550 20 282 6.4 16.1 0.00 0.00 0.00 76 1015.6
20260507204034 20 277 8.0 19.3 0.00 0.00 0.00 77 1015.7
20260507203533 20 294 8.0 19.3 0.00 0.00 0.00 76 1015.5
20260507203045 20 219 8.0 17.7 0.00 0.00 0.00 76 1015.6
20260507202531 20 252 8.0 17.7 0.00 0.00 0.00 77 1015.6
20260507202031 20 308 8.0 16.1 0.00 0.00 0.00 77 1015.7
20260507201554 20 292 8.0 16.1 0.00 0.00 0.00 78 1015.7
20260507201031 20 242 9.7 16.1 0.00 0.00 0.00 77 1015.7
20260507200532 20 248 9.7 16.1 0.00 0.00 0.00 76 1015.7
20260507200046 20 244 6.4 16.1 0.00 0.00 0.00 77 1015.7
20260507195533 20 223 8.0 16.1 0.00 0.00 0.00 76 1015.7
20260507195033 20 296 6.4 16.1 0.00 0.00 0.00 76 1015.6
20260507194552 20 250 8.0 12.9 0.00 0.00 0.00 77 1015.7
20260507194031 20 298 6.4 12.9 0.00 0.00 0.00 77 1015.7
20260507193531 20 273 4.8 14.5 0.00 0.00 0.00 78 1015.6
20260507193054 19 243 6.4 16.1 0.00 0.00 0.00 77 1015.7
20260507192532 19 286 6.4 16.1 0.00 0.00 0.00 79 1015.7
20260507192031 18 252 6.4 17.7 0.00 0.00 0.00 79 1015.8
20260507191553 19 324 8.0 17.7 0.00 0.00 0.00 79 1015.8
20260507191031 18 256 8.0 16.1 0.00 0.00 0.00 78 1015.8
20260507190531 18 288 8.0 16.1 0.00 0.00 0.00 78 1015.9
20260507190057 19 277 6.4 14.5 0.00 0.00 0.00 79 1015.9
20260507185532 19 263 8.0 16.1 0.00 0.00 0.00 80 1016.0
20260507185035 19 306 4.8 16.1 0.00 0.00 0.00 80 1016.1
20260507184554 18 259 8.0 16.1 0.00 0.00 0.00 79 1016.2
20260507184031 18 292 8.0 16.1 0.00 0.00 0.00 79 1016.2
20260507183531 18 225 9.7 16.1 0.00 0.00 0.00 79 1016.2
20260507183052 18 288 6.4 12.9 0.00 0.00 0.00 79 1016.3
20260507182532 18 294 6.4 14.5 0.00 0.00 0.00 79 1016.3
20260507182033 18 273 6.4 14.5 0.00 0.00 0.00 79 1016.2
20260507181543 18 266 6.4 12.9 0.00 0.00 0.00 78 1016.2
20260507181035 18 319 4.8 12.9 0.00 0.00 0.00 79 1016.3
20260507180536 18 242 4.8 12.9 0.00 0.00 0.00 80 1016.3
20260507180047 18 303 4.8 11.3 0.00 0.00 0.00 79 1016.2
20260507175535 18 267 4.8 11.3 0.00 0.00 0.00 79 1016.3
20260507175035 18 259 3.2 11.3 0.00 0.00 0.00 80 1016.4
20260507174552 18 302 4.8 11.3 0.00 0.00 0.00 80 1016.4
20260507174036 18 297 3.2 11.3 0.00 0.00 0.00 80 1016.4
20260507173539 18 231 4.8 11.3 0.00 0.00 0.00 80 1016.4
20260507173047 18 312 3.2 11.3 0.00 0.00 0.00 80 1016.3
20260507172536 18 235 4.8 11.3 0.00 0.00 0.00 81 1016.3
20260507172034 18 228 4.8 14.5 0.00 0.00 0.00 81 1016.4
20260507171545 17 229 1.6 14.5 0.00 0.00 0.00 81 1016.3
20260507171035 17 327 3.2 11.3 0.00 0.00 0.00 82 1016.4
20260507170535 17 269 3.2 12.9 0.00 0.00 0.00 82 1016.5
20260507170052 17 215 3.2 12.9 0.00 0.00 0.00 81 1016.4
20260507165534 17 198 4.8 9.7 0.00 0.00 0.00 81 1016.5
20260507165031 17 0 1.6 9.7 0.00 0.00 0.00 82 1016.4
20260507164548 17 248 3.2 12.9 0.00 0.00 0.00 83 1016.5
20260507164032 17 313 3.2 12.9 0.00 0.00 0.00 83 1016.5
20260507163536 17 284 0.0 1.6 0.00 0.00 0.00 84 1016.5
20260507163047 17 0 0.0 1.6 0.00 0.00 0.00 84 1016.6
20260507162535 17 0 0.0 1.6 0.00 0.00 0.00 84 1016.6
20260507162035 17 0 0.0 1.6 0.00 0.00 0.00 84 1016.5
20260507161545 16 0 0.0 0.0 0.00 0.00 0.00 84 1016.6
20260507161039 16 0 0.0 0.0 0.00 0.00 0.00 84 1016.6
20260507160535 16 0 0.0 0.0 0.00 0.00 0.00 85 1016.5
20260507160054 16 0 0.0 0.0 0.00 0.00 0.00 85 1016.5
20260507155536 16 0 0.0 0.0 0.00 0.00 0.00 85 1016.6
20260507155032 16 0 0.0 0.0 0.00 0.00 0.00 86 1016.6
20260507154550 16 0 0.0 0.0 0.00 0.00 0.00 86 1016.7
20260507154033 16 0 0.0 0.0 0.00 0.00 0.00 86 1016.6
20260507153531 16 0 0.0 0.0 0.00 0.00 0.00 87 1016.6
20260507153057 16 0 0.0 0.0 0.00 0.00 0.00 87 1016.6
20260507152537 16 0 0.0 0.0 0.00 0.00 0.00 88 1016.5
20260507152034 16 0 0.0 0.0 0.00 0.00 0.00 88 1016.6
20260507151547 16 0 0.0 0.0 0.00 0.00 0.00 89 1016.6
20260507151035 16 0 0.0 0.0 0.00 0.00 0.00 89 1016.6
20260507150535 16 0 0.0 0.0 0.00 0.00 0.00 90 1016.5
20260507150048 16 0 0.0 0.0 0.00 0.00 0.00 90 1016.5
20260507145535 15 0 0.0 0.0 0.00 0.00 0.00 90 1016.5
20260507145035 15 0 0.0 0.0 0.00 0.00 0.00 90 1016.5
20260507144550 15 0 0.0 0.0 0.00 0.00 0.00 90 1016.5
20260507144037 15 0 0.0 0.0 0.00 0.00 0.00 90 1016.4
20260507143535 15 0 0.0 0.0 0.00 0.00 0.00 91 1016.3
20260507143048 15 0 0.0 0.0 0.00 0.00 0.00 91 1016.3
20260507142532 15 0 0.0 0.0 0.00 0.00 0.00 91 1016.3
20260507142032 15 0 0.0 0.0 0.00 0.00 0.00 91 1016.2
20260507141553 15 0 0.0 0.0 0.00 0.00 0.00 91 1016.2
20260507141035 15 0 0.0 0.0 0.00 0.00 0.00 91 1016.1
20260507140534 15 0 0.0 0.0 0.00 0.00 0.00 91 1016.2
20260507140051 15 0 0.0 0.0 0.00 0.00 0.00 91 1016.2
20260507135535 14 0 0.0 0.0 0.00 0.00 0.00 91 1016.1
20260507135035 14 0 0.0 0.0 0.00 0.00 0.00 91 1016.1
20260507134552 14 0 0.0 0.0 0.00 0.00 0.00 91 1016.0
20260507134035 14 0 0.0 0.0 0.00 0.00 0.00 90 1016.1
20260507133536 14 0 0.0 0.0 0.00 0.00 0.00 91 1016.0
20260507133055 14 0 0.0 0.0 0.00 0.00 0.00 91 1016.0
20260507132536 14 0 0.0 0.0 0.00 0.00 0.00 90 1016.0
20260507132033 14 0 0.0 0.0 0.00 0.00 0.00 90 1015.9
20260507131558 14 0 0.0 0.0 0.00 0.00 0.00 90 1015.9
20260507131032 14 0 0.0 0.0 0.00 0.00 0.00 90 1016.0
20260507130538 14 0 0.0 0.0 0.00 0.00 0.00 90 1015.9
20260507130058 13 0 0.0 0.0 0.00 0.00 0.00 90 1015.9
20260507125535 13 0 0.0 0.0 0.00 0.00 0.00 90 1015.8
20260507125034 13 0 0.0 0.0 0.00 0.00 0.00 90 1015.8
20260507124553 13 0 0.0 0.0 0.00 0.00 0.00 90 1015.8
20260507124033 13 0 0.0 0.0 0.00 0.00 0.00 90 1015.8
20260507123534 13 0 0.0 0.0 0.00 0.00 0.00 89 1015.7
20260507123047 13 0 0.0 0.0 0.00 0.00 0.00 89 1015.7
20260507122532 13 0 0.0 0.0 0.00 0.00 0.00 89 1015.7
20260507122032 13 0 0.0 0.0 0.00 0.00 0.00 89 1015.7
20260507121604 13 0 0.0 0.0 0.00 0.00 0.00 88 1015.6
20260507121035 13 0 0.0 0.0 0.00 0.00 0.00 88 1015.6
20260507120532 13 0 0.0 0.0 0.00 0.00 0.00 88 1015.6
20260507120047 13 0 0.0 0.0 0.00 0.00 0.00 88 1015.6
20260507115534 13 0 0.0 0.0 0.00 0.00 0.00 88 1015.6
20260507115033 13 0 0.0 0.0 0.00 0.00 0.00 88 1015.6
20260507114555 13 0 0.0 0.0 0.00 0.00 0.00 88 1015.7
20260507114033 13 0 0.0 0.0 0.00 0.00 0.00 88 1015.6
20260507113533 13 0 0.0 0.0 0.00 0.00 0.00 88 1015.7
20260507113048 14 0 0.0 0.0 0.00 0.00 0.00 88 1015.6
20260507112535 14 0 0.0 0.0 0.00 0.00 0.00 88 1015.7
20260507112032 14 0 0.0 0.0 0.00 0.00 0.00 88 1015.7
20260507111545 14 0 0.0 0.0 0.00 0.00 0.00 88 1015.8
20260507111035 14 0 0.0 0.0 0.00 0.00 0.00 88 1015.8
20260507110535 14 0 0.0 0.0 0.00 0.00 0.00 88 1015.8
20260507110049 14 0 0.0 0.0 0.00 0.00 0.00 88 1015.8
20260507105535 14 0 0.0 0.0 0.00 0.00 0.00 88 1015.8
20260507105036 14 0 0.0 0.0 0.00 0.00 0.00 88 1015.8
20260507104551 15 0 0.0 0.0 0.00 0.00 0.00 88 1015.9
20260507104033 15 0 0.0 0.0 0.00 0.00 0.00 88 1015.9
20260507103537 15 0 0.0 0.0 0.00 0.00 0.00 88 1016.0
20260507103045 15 0 0.0 0.0 0.00 0.00 0.00 88 1016.0
20260507102532 15 0 0.0 0.0 0.00 0.00 0.00 87 1016.0
20260507102032 15 0 0.0 0.0 0.00 0.00 0.00 87 1016.0
20260507101547 15 0 0.0 0.0 0.00 0.00 0.00 87 1016.0
20260507101034 15 0 0.0 0.0 0.00 0.00 0.00 87 1016.1
20260507100539 15 0 0.0 0.0 0.00 0.00 0.00 87 1016.1
20260507100048 15 0 0.0 0.0 0.00 0.00 0.00 88 1016.2
20260507095532 15 0 0.0 0.0 0.00 0.00 0.00 88 1016.2
20260507095032 15 0 0.0 0.0 0.00 0.00 0.00 88 1016.3
20260507094547 15 0 0.0 0.0 0.00 0.00 0.00 88 1016.3
20260507094032 15 0 0.0 1.6 0.00 0.00 0.00 88 1016.3
20260507093534 15 0 0.0 1.6 0.00 0.00 0.00 88 1016.3
20260507093055 15 0 0.0 0.0 0.00 0.00 0.00 88 1016.3
20260507092533 15 0 0.0 0.0 0.00 0.00 0.00 88 1016.4
20260507092034 15 0 0.0 0.0 0.00 0.00 0.00 88 1016.4
20260507091552 15 0 0.0 0.0 0.00 0.00 0.00 88 1016.5
20260507091032 15 0 0.0 0.0 0.00 0.00 0.00 88 1016.5
20260507090534 15 0 0.0 0.0 0.00 0.00 0.00 89 1016.5
20260507090052 15 0 0.0 0.0 0.00 0.00 0.00 89 1016.6
20260507085533 15 0 0.0 3.2 0.00 0.00 0.00 89 1016.6
20260507085032 15 0 0.0 3.2 0.00 0.00 0.00 89 1016.7
20260507084545 15 0 0.0 3.2 0.00 0.00 0.00 89 1016.7
20260507084032 15 0 0.0 1.6 0.00 0.00 0.00 89 1016.8
20260507083532 15 336 0.0 1.6 0.00 0.00 0.00 89 1016.7
20260507083047 15 0 0.0 1.6 0.00 0.00 0.00 89 1016.8
20260507082531 15 0 0.0 1.6 0.00 0.00 0.00 89 1016.9
20260507082032 15 0 0.0 0.0 0.00 0.00 0.00 89 1016.8
20260507081554 15 0 0.0 1.6 0.00 0.00 0.00 89 1016.8
20260507081038 15 0 0.0 1.6 0.00 0.00 0.00 89 1017.0
20260507080534 15 0 0.0 1.6 0.00 0.00 0.00 89 1017.0
20260507080057 15 0 0.0 1.6 0.00 0.00 0.00 88 1017.0
20260507075534 15 0 0.0 0.0 0.00 0.00 0.00 88 1017.1
20260507075034 15 0 0.0 0.0 0.00 0.00 0.00 88 1017.1
20260507074557 15 0 0.0 0.0 0.00 0.00 0.00 88 1017.2
20260507074034 15 0 0.0 0.0 0.00 0.00 0.00 88 1017.2
20260507073535 15 0 0.0 0.0 0.00 0.00 0.00 88 1017.2
20260507073045 15 0 0.0 0.0 0.00 0.00 0.00 87 1017.2
20260507072535 15 0 0.0 0.0 0.00 0.00 0.00 87 1017.3
20260507072033 15 0 0.0 0.0 0.00 0.00 0.00 87 1017.3
20260507071546 15 0 0.0 0.0 0.00 0.00 0.00 87 1017.3
20260507071035 15 0 0.0 0.0 0.00 0.00 0.00 87 1017.3
20260507070535 15 0 0.0 1.6 0.00 0.00 0.00 87 1017.3
20260507070045 15 0 0.0 1.6 0.00 0.00 0.00 87 1017.3
20260507065534 15 0 0.0 1.6 0.00 0.00 0.00 87 1017.3
20260507065034 15 0 0.0 1.6 0.00 0.00 0.00 87 1017.3
20260507064547 15 0 0.0 0.0 0.00 0.00 0.00 87 1017.3
20260507064037 15 0 0.0 0.0 0.00 0.00 0.00 87 1017.4
20260507063533 15 0 0.0 0.0 0.00 0.00 0.00 87 1017.3
20260507063047 15 0 0.0 0.0 0.00 0.00 0.00 87 1017.4
20260507062535 15 0 0.0 0.0 0.00 0.00 0.00 87 1017.4
20260507062033 15 0 0.0 0.0 0.00 0.00 0.00 87 1017.4
20260507061544 15 0 0.0 0.0 0.00 0.00 0.00 87 1017.4
20260507061033 15 0 0.0 0.0 0.00 0.00 0.00 87 1017.4
20260507060535 15 0 0.0 0.0 0.00 0.00 0.00 87 1017.3
20260507060048 15 0 0.0 0.0 0.00 0.00 0.00 87 1017.4
20260507055551 15 0 0.0 1.6 0.00 0.00 0.00 87 1017.4
20260507055038 15 0 0.0 1.6 0.00 0.00 0.00 87 1017.4
20260507054621 15 0 0.0 1.6 0.00 0.00 0.00 87 1017.5
20260507054035 15 0 0.0 0.0 0.00 0.00 0.00 87 1017.5
20260507053535 15 0 0.0 0.0 0.00 0.00 0.00 87 1017.4
20260507053049 15 0 0.0 0.0 0.00 0.00 0.00 87 1017.4